Location: Lanoux
(43.1180°N, 1.4255°E)
Time: 17:44:24
(UTC+00:00)

USA 238 DEB - Visible Passes

Search period start: 07 March 2026 00:00
Search period end: 17 March 2026 00:00
Orbit: 883 x 1328 km, 63.4° (Epoch: 10 January)

Date Brightness Start Highest point End Pass type
(mag) Time Alt. Az. Time Alt. Az. Time Alt. Az.
7 Mar 6.3 00:26:14 12° NNE 00:26:14 12° NNE 00:27:04 10° NNE visible
7 Mar 6.1 02:13:37 12° NNW 02:16:03 14° N 02:19:38 10° NNE visible
7 Mar 5.8 04:04:01 10° NNW 04:09:50 25° NNE 04:16:04 10° E visible
8 Mar 6.1 01:29:41 14° N 01:30:07 14° N 01:33:40 10° NNE visible
8 Mar 6.0 03:19:07 10° NNW 03:24:10 20° NNE 03:29:32 10° ENE visible
8 Mar 4.8 05:09:34 10° NNW 05:16:49 54° NE 05:24:40 10° ESE visible
9 Mar 6.1 00:45:41 14° N 00:45:41 14° N 00:48:09 10° NNE visible
9 Mar 6.1 02:34:04 10° NNW 02:38:22 16° NNE 02:42:53 10° NE visible
9 Mar 5.2 04:24:42 10° NNW 04:31:31 39° NE 04:38:53 10° ESE visible
10 Mar 6.2 00:01:37 13° NNE 00:01:37 13° NNE 00:02:59 10° NNE visible
10 Mar 6.2 01:48:59 10° NNW 01:52:29 14° N 01:56:19 10° NE visible
10 Mar 5.6 03:39:50 10° NNW 03:46:04 29° NE 03:52:45 10° E visible
10 Mar 4.1 05:30:23 10° NW 05:37:55 89° SW 05:46:05 10° SSE visible
10 Mar 6.2 23:17:26 12° NNE 23:17:26 12° NNE 23:17:59 10° NNE visible
11 Mar 6.1 01:04:48 13° NNW 01:06:33 14° N 01:10:04 10° NNE visible
11 Mar 5.9 02:54:58 10° NNW 03:00:28 23° NNE 03:06:21 10° ENE visible
11 Mar 4.4 04:45:25 10° NNW 04:52:50 66° NE 05:00:52 10° SE visible
11 Mar 4.9 20:29:44 10° SSW 20:31:43 22° SSW 20:31:43 22° SSW visible
11 Mar 6.2 22:33:05 10° NNE 22:33:05 10° NNE 22:19:21 - WSW visible
12 Mar 6.1 00:20:25 14° N 00:20:37 14° N 00:24:18 10° NNE visible
12 Mar 6.1 02:10:01 10° NNW 02:14:44 18° NNE 02:19:44 10° ENE visible
12 Mar 4.9 04:00:31 10° NNW 04:07:36 47° NE 04:15:16 10° ESE visible
12 Mar 3.7 19:45:20 10° S 19:50:54 42° ESE 19:51:21 41° ESE visible
12 Mar 5.0 21:36:00 10° WSW 21:48:14 10° NNE 21:39:05 28° W visible
12 Mar 6.0 23:35:30 16° N 23:35:30 16° N 23:38:57 10° NNE visible
13 Mar 6.2 01:24:54 10° NNW 01:28:54 15° NNE 01:33:06 10° NE visible
13 Mar 5.4 03:15:39 10° NNW 03:22:14 34° NE 03:29:20 10° ESE visible
13 Mar 4.0 05:06:18 10° NW 05:13:49 73° WSW 05:21:55 10° SSE visible
13 Mar 4.3 19:01:31 10° SSE 19:06:17 25° ESE 19:11:21 10° ENE visible
13 Mar 3.9 20:50:34 10° SW 20:56:34 61° NW 21:03:12 10° NNE visible
13 Mar 5.8 22:44:26 10° WNW 22:48:59 20° NNW 22:53:52 10° NNE visible
14 Mar 6.2 00:39:30 10° NNW 00:42:59 14° N 00:46:38 10° NE visible
14 Mar 5.7 02:30:48 10° NNW 02:36:43 26° NNE 02:43:05 10° E visible
14 Mar 4.1 04:21:17 10° NW 04:28:48 80° NE 04:36:56 10° SE visible
14 Mar 3.3 20:05:30 10° SSW 20:11:31 88° SE 20:18:11 10° NE visible
14 Mar 5.4 21:58:14 10° W 22:03:21 25° NNW 22:08:55 10° NNE visible
14 Mar 6.2 23:53:41 10° NNW 23:57:03 14° N 00:00:35 10° NNE visible
15 Mar 6.0 01:45:54 10° NNW 01:51:05 21° NNE 01:56:35 10° ENE visible
15 Mar 4.6 03:36:21 10° NNW 03:43:39 57° NE 03:51:34 10° SE visible
15 Mar 4.5 05:27:35 10° NW 05:34:30 39° WSW 05:41:52 10° S visible
15 Mar 3.5 19:20:50 10° SSW 19:26:39 56° ESE 19:33:02 10° NE visible
15 Mar 5.0 21:12:17 10° WSW 21:17:53 34° NW 21:23:59 10° NNE visible
15 Mar 6.1 23:07:29 10° NW 23:11:09 15° N 23:15:00 10° NNE visible
16 Mar 6.1 01:00:53 10° NNW 01:05:18 17° NNE 01:09:57 10° NE visible
16 Mar 5.1 02:51:28 10° NNW 02:58:22 41° NE 03:05:49 10° ESE visible
16 Mar 4.1 04:42:17 10° NW 04:49:40 58° WSW 04:57:37 10° SSE visible
16 Mar 4.1 18:36:38 10° S 18:41:57 34° ESE 18:47:39 10° NE visible
16 Mar 4.3 20:26:40 10° WSW 20:32:34 49° NW 20:39:04 10° NNE visible
16 Mar 6.0 22:21:07 10° WNW 22:25:18 17° NNW 22:29:48 10° NNE visible
